Location: La Tine
(46.4708°N, 7.0525°E)
Time: 00:52:45
(UTC+00:00)

Meteor 1-24 Rocket - Pass Details

Date: 21 January 2021
Orbit: 791 x 926 km, 81.3° (Epoch: 03 March)

Event Time Altitude Azimuth Distance (km) Brightness Sun altitude
Exits shadow 04:27:20 26° 188° (S) 1,591 5.0 -27.2°
Drops below altitude 10° 04:29:46 10° 182° (S) 2,481 6.1 -26.7°
Sets 04:32:14 0° 180° (S) 3,434 6.9 -26.3°
